Location: Home
(42.5358°N, 72.7383°W)
Time: 06:09:32
(UTC-05:00)

Courier 1B - Pass Details

Date: 06 December 2021
Orbit: 962 x 1209 km, 28.3° (Epoch: 25 January)

Event Time Altitude Azimuth Distance (km) Brightness Sun altitude
Rises 15:53:41 0° 234° (SW) 4,079 14.4 2.9°
Reaches altitude 10° 15:57:09 10° 221° (SW) 3,092 12.0 2.4°
Maximum altitude 16:03:01 24° 171° (S) 2,163 9.7 1.5°
Drops below altitude 10° 16:08:40 10° 121° (ESE) 2,971 9.8 0.6°
Sets 16:11:55 0° 108° (ESE) 3,886 10.2 0.1°
